Regional Weather Roundup
Issued by NWS

Home | Current Version | Previous Version | Text Only | Print | Product List | Glossary On
Versions: 1 2 3 4 5 6 7 8 9 10 11 12 13 14 15 16 17 18 19 20 21 22 23 24 25 26 27 28 29 30 31 32 33 34 35 36 37 38 39 40 41 42 43 44 45 46 47 48 49 50
000
ASUS44 KFWD 231815
RWRTX
NORTH TEXAS HOURLY WEATHER ROUNDUP
NATIONAL WEATHER SERVICE FORT WORTH TX
100 PM CDT SAT AUG 23 2014

NOTE: "FAIR" INDICATES FEW OR NO CLOUDS BELOW 12,000 FEET WITH NO
SIGNIFICANT WEATHER AND/OR OBSTRUCTIONS TO VISIBILITY.

TXZ118-119-231900-
DALLAS/FORT WORTH METROPLEX

CITY           SKY/WX    TMP DP  RH WIND       PRES   REMARKS
DFW AIRPORT    MOSUNNY   94  60  32 S14       29.99F HX  94
6HR MIN TEMP:  78; 6HR MAX TEMP:  94;

DALLAS LOVE    SUNNY     94  63  35 S13       29.99F HX  95
6HR MIN TEMP:  79; 6HR MAX TEMP:  94;

FTW MEACHAM    SUNNY     97  61  30 S12       29.98F HX  97
6HR MIN TEMP:  79; 6HR MAX TEMP:  97;

DAL-EXECUTIVE  SUNNY     96  58  27 VRB6G17   29.99F HX  95
6HR MIN TEMP:  78; 6HR MAX TEMP:  97;

FTW-ALLIANCE   SUNNY     96  56  26 S14G21    29.97F HX  94
6HR MIN TEMP:  77; 6HR MAX TEMP:  97;

FTW-NAS-JRB    SUNNY     99  55  23 SE15      30.02F HX  97
6HR MIN TEMP:  79; 6HR MAX TEMP: 100;

FTW-SPINKS     SUNNY     93  63  36 SE10      30.00F HX  94
ARLINGTON      SUNNY     93  61  34 SE10      29.99F HX  93
6HR MIN TEMP:  77; 6HR MAX TEMP:  93;

GRAND PRAIRIE  SUNNY     88  63  42 S7        30.03S
ADDISON        SUNNY     91  59  33 S9G17     30.01F HX  90
MESQUITE       SUNNY     93  61  33 SE8       30.00F HX  93
LANCASTER      SUNNY     94  58  30 SW9       30.00F HX  93
6HR MIN TEMP:  74; 6HR MAX TEMP:  94;

$$

TXZ091>094-102>105-117-120-121-131>134-231900-
NORTH CENTRAL TEXAS

CITY           SKY/WX    TMP DP  RH WIND       PRES   REMARKS
SHRMAN/DENISON SUNNY     95  57  27 S13G20    30.00F HX  93
6HR MIN TEMP:  76; 6HR MAX TEMP:  95;

GAINESVILLE    SUNNY     92  61  35 S10       30.00F HX  92
6HR MIN TEMP:  72; 6HR MAX TEMP:  92;

BOWIE          SUNNY     94  59  30 S9        29.99F HX  93
6HR MIN TEMP:  73; 6HR MAX TEMP:  94;

BRIDGEPORT     SUNNY     95  53  24 S9        29.99F HX  92
6HR MIN TEMP:  74; 6HR MAX TEMP:  95;

DECATUR        SUNNY     94  56  28 S8G17     30.00S HX  92
6HR MIN TEMP:  77; 6HR MAX TEMP:  94;

DENTON         SUNNY     95  57  27 S15       29.98F HX  94
6HR MIN TEMP:  74; 6HR MAX TEMP:  95;

MCKINNEY       SUNNY     93  61  34 S9        29.99F HX  93
6HR MIN TEMP:  72; 6HR MAX TEMP:  93;

GREENVILLE     SUNNY     93  61  33 S7        30.01F HX  93
ROCKWALL       SUNNY     92  65  40 SW9       29.99F HX  94
6HR MIN TEMP:  75; 6HR MAX TEMP:  92;

TERRELL        SUNNY     94  61  33 SW8       30.01F HX  94
6HR MIN TEMP:  76; 6HR MAX TEMP:  95;

WAXAHACHIE     SUNNY     93  58  30 SW9       30.01F HX  92
6HR MIN TEMP:  74; 6HR MAX TEMP:  93;

CLEBURNE       SUNNY     93  61  33 S10       30.01F HX  93
GRANBURY       SUNNY     97  54  23 S12G17    29.99F HX  95
6HR MIN TEMP:  76; 6HR MAX TEMP:  97;

$$

TXZ083>090-098>101-113>116-127>130-139>142-154-155-231900-
WESTERN NORTH TEXAS

CITY           SKY/WX    TMP DP  RH WIND       PRES   REMARKS
WICHITA FALLS  SUNNY     98  58  26 S16       29.94F HX  97
6HR MIN TEMP:  72; 6HR MAX TEMP:  99;

WF-KICKAPOO    SUNNY     99  53  21 S8G20     29.96F HX  97
6HR MIN TEMP:  70; 6HR MAX TEMP:  99;

VERNON         MOSUNNY   99  53  20 S15G26    29.94F HX  97
6HR MIN TEMP:  72; 6HR MAX TEMP: 105;

ABILENE        MOSUNNY   95  54  25 S18       30.00F HX  93
6HR MIN TEMP:  73; 6HR MAX TEMP:  95;

ABILENE-DYESS  PTSUNNY   93  57  29 S16       29.99F HX  92
6HR MIN TEMP:  75; 6HR MAX TEMP:  95;

BRECKENRIDGE   SUNNY     97  54  23 S13G21    29.98F HAZE    HX  94
6HR MIN TEMP:  76; 6HR MAX TEMP:  97;

GRAHAM         SUNNY     97  55  24 SW9       29.96F HX  95
6HR MIN TEMP:  76; 6HR MAX TEMP:  97;

MINERAL WELLS  SUNNY     95  59  30 S12G22    29.97F HX  94
6HR MIN TEMP:  70; 6HR MAX TEMP:  95;

STEPHENVILLE   SUNNY     93  54  26 S14       30.04F HX  91
6HR MIN TEMP:  70; 6HR MAX TEMP:  93;

COMANCHE       SUNNY     94  54  26 S12       30.02F HX  92
6HR MIN TEMP:  72; 6HR MAX TEMP:  94;

BROWNWOOD      MOSUNNY   93  57  29 S13       30.01F HX  92
COLEMAN        MOSUNNY   90  53  28 S9G17     30.03F
6HR MIN TEMP:  67; 6HR MAX TEMP:  91;

BRADY          SUNNY     90  61  37 S9        30.03F
$$

TXZ143>147-156>162-174-175-231900-
CENTRAL TEXAS

CITY           SKY/WX    TMP DP  RH WIND       PRES   REMARKS
WACO           SUNNY     93  66  40 S13       30.00F HX  96
6HR MIN TEMP:  75; 6HR MAX TEMP:  94;

WACO-TSTC      SUNNY     93  66  40 S13       30.00F HX  96
WACO-MCGREGOR  SUNNY     97  64  34 S13       30.00F HX  99
6HR MIN TEMP:  73; 6HR MAX TEMP:  97;

HILLSBORO      SUNNY     94  60  32 S13       30.00F HX  94
CORSICANA      SUNNY     94  64  37 S10G16    30.02F HX  95
6HR MIN TEMP:  74; 6HR MAX TEMP:  94;

MEXIA          SUNNY     92  69  47 SE5G10    30.01F HX  97
6HR MIN TEMP:  72; 6HR MAX TEMP:  92;

HEARNE           N/A     92  70  47 SE7       30.01F HX  97
6HR MIN TEMP:  74; 6HR MAX TEMP:  93;

CAMERON        MOSUNNY   94  69  44 S8        30.01F HX  98
6HR MIN TEMP:  74; 6HR MAX TEMP:  94;

TEMPLE         SUNNY     93  66  40 S13       30.00F HX  96
6HR MIN TEMP:  73; 6HR MAX TEMP:  93;

KILLEEN        MOSUNNY   91  68  46 S12G17    30.01F HX  95
KILLEEN-SKYLRK SUNNY     93  66  40 S9        30.01F HX  96
6HR MIN TEMP:  73; 6HR MAX TEMP:  93;

FORT HOOD      SUNNY     95  66  38 S9        30.01  HX  98
6HR MIN TEMP:  74; 6HR MAX TEMP:  95;

GATESVILLE     SUNNY     93  64  38 S8        30.03F HX  95
HAMILTON       SUNNY     93  58  31 SW10G22   30.03F HX  92
6HR MIN TEMP:  70; 6HR MAX TEMP:  94;

LAMPASAS       SUNNY     91  67  44 S12       30.02F HX  94
6HR MIN TEMP:  71; 6HR MAX TEMP:  92;

$$

TXZ095>097-106>112-122>126-135>138-148>153-164>167-231900-
EAST TEXAS

CITY           SKY/WX    TMP DP  RH WIND       PRES   REMARKS
PARIS          SUNNY     91  70  49 SW5       30.02F HX  97
6HR MIN TEMP:  72; 6HR MAX TEMP:  91;

SULPHUR SPRNGS SUNNY     95  63  34 S6        30.03F HX  96
6HR MIN TEMP:  76; 6HR MAX TEMP:  95;

CLARKSVILLE    MOSUNNY   93  69  45 S5        30.01F HX  98
6HR MIN TEMP:  73; 6HR MAX TEMP:  94;

MOUNT PLEASANT SUNNY     93  61  34 CALM      30.03F HX  93
6HR MIN TEMP:  70; 6HR MAX TEMP:  94;

GILMER         SUNNY     93  64  38 W3        30.04F HX  95
MINEOLA        SUNNY     91  63  38 S8        30.03F HX  92
TYLER          SUNNY     92  67  43 SW7       30.03F HX  95
6HR MIN TEMP:  74; 6HR MAX TEMP:  92;

LONGVIEW       SUNNY     93  65  39 SW7       30.02F HX  95
6HR MIN TEMP:  72; 6HR MAX TEMP:  94;

MARSHALL       SUNNY     95  66  38 SW6       30.04F HX  98
6HR MIN TEMP:  73; 6HR MAX TEMP:  95;

ATHENS         SUNNY     90  68  48 S7        30.01F HX  93
PALESTINE      SUNNY     92  71  50 S5        30.03F HX  98
JACKSONVILLE   SUNNY     89  70  51 S7        30.06F HX  94
HENDERSON      SUNNY     92  65  40 SW5       30.04F HX  93
6HR MIN TEMP:  71; 6HR MAX TEMP:  93;

NACOGDOCHES    MOSUNNY   90  72  55 SW5       30.04F HX  96
6HR MIN TEMP:  68; 6HR MAX TEMP:  90;

LUFKIN         MOSUNNY   92  72  51 W6        30.03F HX  99
6HR MIN TEMP:  75; 6HR MAX TEMP:  92;

$$

SUPPLEMENTAL OBSERVATIONS (CENTRAL)

CITY           SKY/WX    TMP DP  RH WIND       PRES   REMARKS
LAKE TEXOMA      N/A     93  57  29 SW14        N/A  HX  92
CADDO GRASSLND   N/A     95  64  36 S10         N/A  HX  97
PAT MAYSE LAKE   N/A     91  70  49 S10         N/A  HX  97
GREENVILLE       N/A     95  63  34 S8          N/A  HX  96
CEDAR HILL       N/A     97  63  32 S7          N/A  HX  98
ATHENS           N/A     95  68  41 SE6G17      N/A  HX  99
LAKE LIMESTONE   N/A     97  70  41 S7          N/A  HX 103
MCGREGOR         N/A     95  64  36 S10         N/A  HX  97


USA.gov is the U.S. government's official web portal to all federal, state and local government web resources and services.